Weather reports worldwide

Advertisment
Chivenor, United Kingdom (3707): temperature & dewpoint: 06.11.2019 16:00:00 - 12.11.2019 16:00:00 (GMT)Chivenor, United Kingdom (3707): temperature -20cm & temperature -100cm: 06.11.2019 16:00:00 - 12.11.2019 16:00:00 (GMT)Chivenor, United Kingdom (3707): wind speed & gusts: 06.11.2019 16:00:00 - 12.11.2019 16:00:00 (GMT)Chivenor, United Kingdom (3707): wind direction: 06.11.2019 16:00:00 - 12.11.2019 16:00:00 (GMT)Chivenor, United Kingdom (3707): reduced air pressure: 06.11.2019 16:00:00 - 12.11.2019 16:00:00 (GMT)Chivenor, United Kingdom (3707): visibility: 06.11.2019 16:00:00 - 12.11.2019 16:00:00 (GMT)Chivenor, United Kingdom (3707): precipitation: 06.11.2019 16:00:00 - 12.11.2019 16:00:00 (GMT)
Date & Time tt [°C] td [°C] tt -20cm [°C] tt -100cm [°C] ff [km/h] ff [kn] fx [km/h] fx [kn] dd ppp [hPa] vv [km] rr [mm]
12.11.2019 16:00:00 9,7 4,0 - - 37 20 65 35 NW 1002,4 30 0,0
12.11.2019 15:00:00 9,5 4,1 - - 46 25 67 36 NW 1002,1 28 0,0
12.11.2019 14:00:00 9,5 3,8 - - 54 29 68 37 WNW 1001,9 22 0,0
12.11.2019 13:00:00 9,6 3,3 - - 52 28 70 38 NW 1002,3 16 0,0
12.11.2019 12:00:00 9,2 2,1 - - 52 28 70 38 WNW 1002,5 21 0,0
12.11.2019 11:00:00 9,0 0,8 - - 48 26 63 34 WNW 1003,1 40 0,0
12.11.2019 10:00:00 8,6 2,0 - - 46 25 65 35 WNW 1003,0 23 0,0
12.11.2019 09:00:00 7,3 2,3 8,7 11,7 39 21 65 35 WNW 1002,9 21 0,0
12.11.2019 08:00:00 7,5 1,8 - - 44 24 63 34 WNW 1002,8 30 0,0
12.11.2019 07:00:00 5,7 2,2 - - 48 26 65 35 NW 1002,9 16 0,6
12.11.2019 06:00:00 7,8 1,7 - - 41 22 65 35 NW 1003,3 35 0,2
12.11.2019 05:00:00 6,4 2,2 - - 37 20 57 31 NW 1003,8 4,5 0,6
12.11.2019 04:00:00 6,5 1,0 - - 39 21 65 35 NW 1003,5 40 0,2
12.11.2019 03:00:00 8,0 2,0 - - 46 25 74 40 NW 1003,5 30 0,2
12.11.2019 02:00:00 6,1 1,9 - - 37 20 59 32 WNW 1003,9 35 0,0
12.11.2019 01:00:00 7,8 2,6 - - 42 23 63 34 NW 1004,1 45 1,0
12.11.2019 00:00:00 8,2 1,8 - - 35 19 63 34 NW 1004,3 35 0,2
11.11.2019 23:00:00 8,2 2,6 - - 29 16 63 34 NW 1004,5 50 0,0
11.11.2019 22:00:00 8,8 3,2 - - 41 22 59 32 WNW 1004,5 35 0,0
11.11.2019 21:00:00 8,3 4,2 - - 37 20 70 38 WNW 1004,5 35 0,2
11.11.2019 20:00:00 8,2 3,2 - - 44 24 65 35 WNW 1004,7 8 0,2
11.11.2019 19:00:00 8,9 4,3 - - 37 20 57 31 WNW 1004,7 17 0,0
11.11.2019 18:00:00 9,2 3,6 - - 39 21 54 29 WNW 1005,0 21 0,0
11.11.2019 17:00:00 9,2 2,8 - - 39 21 57 31 WNW 1005,2 30 0,0
11.11.2019 16:00:00 9,2 4,0 - - 37 20 57 31 WNW 1005,3 16 0,0
11.11.2019 15:00:00 9,3 2,8 - - 42 23 63 34 WNW 1005,4 24 0,0
11.11.2019 14:00:00 10,1 3,8 - - 41 22 59 32 WNW 1005,8 15 0,0
11.11.2019 13:00:00 9,9 3,8 - - 42 23 63 34 WNW 1006,3 14 0,0
11.11.2019 12:00:00 9,4 3,4 - - 41 22 59 32 NW 1006,5 21 0,2
11.11.2019 11:00:00 9,8 3,0 - - 44 24 61 33 NW 1006,5 22 0,0
11.11.2019 10:00:00 9,4 2,5 - - 41 22 65 35 NW 1006,3 23 0,0
11.11.2019 09:00:00 9,1 2,2 9,0 11,9 42 23 65 35 NW 1006,1 19 0,0
11.11.2019 08:00:00 8,8 2,2 - - 37 20 63 34 NW 1005,9 23 0,0
11.11.2019 07:00:00 8,9 2,8 - - 46 25 68 37 NW 1005,1 18 0,0
11.11.2019 06:00:00 9,0 3,3 - - 44 24 68 37 NW 1004,8 17 0,0
11.11.2019 05:00:00 9,1 3,7 - - 42 23 65 35 NW 1004,5 17 0,0
11.11.2019 04:00:00 8,6 3,4 - - 41 22 67 36 NW 1004,2 21 0,4
11.11.2019 03:00:00 8,8 5,7 - - 29 16 80 43 NW 1004,7 12 0,2
11.11.2019 02:00:00 7,7 6,1 - - 41 22 63 34 SW 1005,0 3,0 0,8
11.11.2019 01:00:00 7,8 6,2 - - 18 10 - - SSW 1005,8 30 0,0
11.11.2019 00:00:00 7,6 6,1 - - 15 8 63 34 S 1007,5 27 0,4
10.11.2019 23:00:00 7,1 6,0 - - 15 8 - - SSE 1008,9 16 0,2
10.11.2019 22:00:00 6,9 5,7 - - 8 4 - - SSW 1010,5 12 0,8
10.11.2019 21:00:00 6,7 4,7 - - 9 5 - - SSE 1011,8 23 0,0
10.11.2019 20:00:00 6,4 4,5 - - 5 3 - - SE 1012,3 35 0,0
10.11.2019 19:00:00 6,7 4,5 - - 13 7 - - SE 1012,3 45 0,0
10.11.2019 18:00:00 6,7 4,7 - - 11 6 - - SSE 1011,8 50 0,0
10.11.2019 17:00:00 6,9 4,1 - - 8 4 - - SSE 1013,9 50 0,0
10.11.2019 16:00:00 8,4 4,4 - - 11 6 - - SE 1014,5 50 0,0
10.11.2019 15:00:00 9,6 4,0 - - 8 4 - - S 1015,0 45 0,0
10.11.2019 14:00:00 9,7 4,0 - - 8 4 - - ENE 1015,0 40 0,0
10.11.2019 13:00:00 9,2 2,8 - - 4 2 - - SE 1015,4 50 0,0
10.11.2019 12:00:00 8,5 3,3 - - 5 3 - - NNE 1015,1 50 0,0
10.11.2019 11:00:00 8,4 2,8 - - 24 13 - - ENE 1015,2 40 0,2
10.11.2019 10:00:00 7,7 2,3 - - 18 10 - - ENE 1015,1 35 0,0
10.11.2019 09:00:00 7,3 2,4 8,7 12,0 18 10 - - NE 1014,3 50 0,0
10.11.2019 08:00:00 6,9 2,7 - - 24 13 - - NE 1013,1 50 0,0
10.11.2019 07:00:00 6,6 2,7 - - 16 9 - - ENE 1011,6 50 0,0
10.11.2019 06:00:00 5,6 3,3 - - 16 9 - - NNE 1010,5 30 0,2
10.11.2019 05:00:00 5,5 2,7 - - 26 14 - - NNE 1009,8 24 0,0
10.11.2019 04:00:00 6,5 2,7 - - 18 10 - - NNE 1008,3 50 0,0
10.11.2019 03:00:00 6,5 3,0 - - 22 12 - - N 1007,3 50 0,0
10.11.2019 02:00:00 6,6 3,3 - - 15 8 - - N 1006,4 50 0,0
10.11.2019 01:00:00 7,5 4,7 - - 24 13 48 26 N 1005,4 50 0,0
10.11.2019 00:00:00 8,5 4,9 - - 34 18 68 37 NNW 1004,2 50 0,0
09.11.2019 23:00:00 8,5 4,9 - - 46 25 67 36 NW 1003,4 50 0,0
09.11.2019 22:00:00 9,0 5,2 - - 44 24 63 34 NW 1003,3 21 0,4
09.11.2019 21:00:00 7,9 4,7 - - 48 26 72 39 NW 1003,4 4,1 1,0
09.11.2019 20:00:00 9,4 4,6 - - 41 22 65 35 NW 1003,3 14 0,2
09.11.2019 19:00:00 9,8 4,4 - - 44 24 68 37 NW 1003,5 28 0,0
09.11.2019 18:00:00 9,6 3,9 - - 48 26 65 35 NW 1003,2 40 0,2
09.11.2019 17:00:00 8,7 5,2 - - 31 17 70 38 NW 1002,6 21 0,2
09.11.2019 16:00:00 9,2 4,4 - - 39 21 59 32 NW 1002,2 50 0,2
09.11.2019 15:00:00 8,9 4,2 - - 34 18 48 26 NW 1001,8 50 0,0
09.11.2019 14:00:00 9,4 5,7 - - 34 18 46 25 NW 1001,5 40 0,8
09.11.2019 13:00:00 9,9 6,1 - - 29 16 - - WNW 1001,0 45 0,0
09.11.2019 12:00:00 9,6 6,6 - - 22 12 - - WNW 1001,3 40 0,2
09.11.2019 11:00:00 7,6 6,6 - - 11 6 - - SE 1002,3 40 1,0
09.11.2019 10:00:00 6,0 5,2 - - 13 7 - - ESE 1002,9 21 3,4
09.11.2019 09:00:00 5,3 4,2 8,4 12,4 22 12 - - SE 1003,4 3,5 1,4
09.11.2019 08:00:00 4,8 3,5 - - 26 14 - - ESE 1004,4 40 0,4
09.11.2019 07:00:00 3,8 2,3 - - 22 12 - - ESE 1006,1 18 0,2
09.11.2019 06:00:00 3,0 1,2 - - 21 11 - - E 1007,5 50 0,2
09.11.2019 05:00:00 2,3 0,9 - - 18 10 - - E 1008,9 50 0,0
09.11.2019 04:00:00 1,2 0,1 - - 16 9 - - E 1010,2 50 0,0
09.11.2019 03:00:00 0,5 -0,3 - - 18 10 - - E 1011,3 50 0,0
09.11.2019 02:00:00 0,4 -0,4 - - 15 8 - - E 1012,3 40 0,0
09.11.2019 01:00:00 0,2 -0,7 - - 11 6 - - ESE 1013,4 23 0,0
09.11.2019 00:00:00 1,4 0,4 - - 9 5 68 37 E 1014,2 28 0,0
08.11.2019 23:00:00 2,1 1,0 - - 13 7 - - E 1013,6 45 0,0
08.11.2019 22:00:00 1,5 0,3 - - 11 6 - - ESE 1013,5 11 0,0
08.11.2019 21:00:00 3,5 2,0 - - 9 5 - - E 1014,0 25 0,0
08.11.2019 20:00:00 4,8 1,3 - - 8 4 - - N 1013,7 45 0,0
08.11.2019 19:00:00 6,6 2,4 - - 8 4 - - NNE 1013,6 50 0,0
08.11.2019 18:00:00 5,7 1,3 - - 2 1 - - SW 1013,4 50 0,0
08.11.2019 17:00:00 8,0 2,2 - - 8 4 - - NW 1013,0 50 0,0
08.11.2019 16:00:00 9,7 2,9 - - 15 8 - - NNW 1012,6 40 0,0
08.11.2019 15:00:00 10,1 2,9 - - 18 10 - - NNW 1011,9 50 0,0
08.11.2019 14:00:00 10,3 3,1 - - 18 10 - - NNW 1011,4 40 0,0
08.11.2019 13:00:00 9,8 3,0 - - 16 9 - - N 1010,9 40 0,0
08.11.2019 12:00:00 10,2 3,8 - - 16 9 - - NNE 1010,6 28 0,0
08.11.2019 11:00:00 10,0 4,2 - - 18 10 - - NNE 1010,3 45 0,0
08.11.2019 10:00:00 8,5 4,1 - - 16 9 - - NNE 1009,8 50 0,0
08.11.2019 09:00:00 8,2 4,0 9,2 12,7 21 11 - - N 1008,8 50 0,0
08.11.2019 08:00:00 8,1 4,2 - - 18 10 - - NNE 1007,5 50 0,0
08.11.2019 07:00:00 8,0 4,1 - - 22 12 - - NNE 1006,1 50 0,0
08.11.2019 06:00:00 7,9 4,0 - - 28 15 - - NNE 1005,0 50 0,0
08.11.2019 05:00:00 8,0 4,8 - - 22 12 - - NNE 1003,8 50 0,0
08.11.2019 04:00:00 7,1 5,8 - - 18 10 - - N 1002,7 50 0,0
08.11.2019 03:00:00 2,6 2,1 - - 5 3 - - SW 1001,7 19 0,0
08.11.2019 02:00:00 2,4 1,8 - - 5 3 - - ENE 1000,9 19 0,6
08.11.2019 01:00:00 1,8 1,3 - - 9 5 - - E 1000,0 45 0,0
08.11.2019 00:00:00 1,7 1,0 - - 11 6 - - E 999,2 30 0,0
07.11.2019 23:00:00 2,2 1,5 - - 9 5 - - E 998,5 30 0,0
07.11.2019 22:00:00 2,6 1,9 - - 11 6 - - E 997,6 40 0,0
07.11.2019 21:00:00 3,3 2,5 - - 9 5 - - E 996,8 40 0,0
07.11.2019 20:00:00 3,5 2,0 - - 8 4 - - ESE 996,1 45 0,0
07.11.2019 19:00:00 5,0 3,6 - - 13 7 - - E 995,4 50 0,0
07.11.2019 18:00:00 5,6 3,9 - - 5 3 - - SE 994,9 50 0,2
07.11.2019 17:00:00 6,4 4,8 - - 9 5 - - SSE 994,6 40 1,2
07.11.2019 16:00:00 6,6 4,7 - - 8 4 - - E 994,1 30 0,8
07.11.2019 15:00:00 6,8 5,1 - - 11 6 - - E 993,6 45 2,2
07.11.2019 14:00:00 7,5 4,7 - - 9 5 - - ESE 993,6 40 0,0
07.11.2019 13:00:00 7,5 5,3 - - 13 7 - - SE 993,0 45 0,2
07.11.2019 12:00:00 7,3 5,0 - - 13 7 - - SE 993,1 35 0,6
07.11.2019 11:00:00 8,3 4,4 - - 22 12 - - SW 993,2 23 0,0
07.11.2019 10:00:00 9,4 5,7 - - 11 6 - - SSW 992,6 28 1,6
07.11.2019 09:00:00 8,1 3,7 10,4 12,7 31 17 - - WSW 992,5 15 0,0
07.11.2019 08:00:00 8,0 3,6 - - 16 9 - - W 992,6 30 0,0
07.11.2019 07:00:00 7,8 2,7 - - 22 12 - - W 992,4 40 0,0
07.11.2019 06:00:00 8,3 2,8 - - 29 16 50 27 W 992,5 45 0,0
07.11.2019 05:00:00 8,2 4,0 - - 29 16 46 25 WNW 992,6 40 1,4
07.11.2019 04:00:00 8,0 4,6 - - 22 12 52 28 NW 992,9 50 0,0
07.11.2019 03:00:00 9,0 4,4 - - 37 20 52 28 WNW 993,0 45 0,0
07.11.2019 02:00:00 8,9 4,2 - - 29 16 48 26 WNW 993,4 45 0,0
07.11.2019 01:00:00 7,9 5,3 - - 18 10 - - NW 993,7 45 0,4
07.11.2019 00:00:00 8,4 6,2 - - 28 15 54 29 NW 994,2 8 0,8
06.11.2019 23:00:00 9,4 6,0 - - 28 15 46 25 NW 994,1 50 0,0
06.11.2019 22:00:00 9,1 6,3 - - 41 22 55 30 WNW 994,6 35 0,0
06.11.2019 21:00:00 10,0 7,1 - - 28 15 - - WNW 994,9 50 1,8
06.11.2019 20:00:00 8,9 8,0 - - 21 11 - - SSE 995,4 6 2,0
06.11.2019 19:00:00 8,7 7,8 - - 15 8 - - SE 996,3 50 1,2
06.11.2019 18:00:00 8,9 7,6 - - 21 11 - - S 997,8 4,6 2,0
06.11.2019 17:00:00 9,0 7,7 - - 9 5 - - S 998,8 28 1,6
06.11.2019 16:00:00 9,4 7,8 - - 9 5 - - SSE 999,9 45 0,2

tt = temperature
td = dewpoint
tt -20cm = temperature -20cm
tt -100cm = temperature -100cm
ff = wind speed
fx = gusts
dd = wind direction
ppp = reduced air pressure
vv = visibility
rr = precipitation

Next stations